Weather History for Mount Pleasant, IA

Change the Weather History Date:

Thursday, June 20, 2013

  Actual Average Record
Temperature  
Mean Temperature 77 °F -  
Max Temperature 91 °F 82 °F 98 °F (1988)
Min Temperature 64 °F 62 °F 46 °F (2003)
Cooling Degree Days 12    
Growing Degree Days 27 (Base 50)    
Moisture  
Dew Point 61 °F    
Average Humidity 57    
Maximum Humidity 82    
Minimum Humidity 35    
Precipitation  
Precipitation 0.00 in - - ()
Sea Level Pressure  
Sea Level Pressure 30.06 in    
Wind  
Wind Speed 8 mph (SE)    
Max Wind Speed 17 mph    
Max Gust Speed 22 mph    
Visibility 10 miles    
Events      
Averages and records for this station are not official NWS values.
T = Trace of Precipitation, MM = Missing Value Source: NWS Daily Summary

Daily Weather History Graph

Daily Weather History Graph

Search for Another Location

Airport:

Trip Planner

Search our weather history database for the weather conditions in past years. The results will help you decide how hot, cold, wet, or windy it might be!

Date:

Astronomy

Jun. 20, 2013 Rise Set
Actual Time 5:34 AM CDT 8:41 PM CDT
Civil Twilight 5:00 AM CDT 9:14 PM CDT
Nautical Twilight 4:17 AM CDT 9:57 PM CDT
Astronomical Twilight 3:26 AM CDT 10:48 PM CDT
Moon 5:43 PM CDT (6/20) 3:01 AM CDT (6/20)
Length of Visible Light 16h 14m
Length of Day
15h 07m
Waxing Gibbous, 89% of the Moon is Illuminated
Jun 20
Waxing Gibbous
Jun 23
Full
Jun 29
Last Quarter
Jul 8
New
Jul 15
First Quarter

Hourly Weather History & Observations

Time (CDT) Temp. Heat Index Dew Point Humidity Pressure Visibility Wind Dir Wind Speed Gust Speed Precip Events Conditions
12:15 AM 68.9 °F - 58.5 °F 69% 30.07 in 10.0 mi ESE 5.8 mph - N/A   Clear
12:35 AM 67.6 °F - 59.2 °F 74% 30.07 in 10.0 mi ESE 5.8 mph - N/A   Clear
12:55 AM 67.5 °F - 58.5 °F 73% 30.07 in 10.0 mi SE 3.5 mph - N/A   Clear
1:15 AM 67.6 °F - 58.5 °F 72% 30.07 in 10.0 mi ESE 3.5 mph - N/A   Clear
1:35 AM 67.1 °F - 58.8 °F 75% 30.08 in 10.0 mi Calm Calm - N/A   Clear
1:55 AM 67.5 °F - 58.5 °F 73% 30.08 in 10.0 mi Calm Calm - N/A   Clear
2:15 AM 66.4 °F - 58.6 °F 76% 30.08 in 10.0 mi SE 4.6 mph - N/A   Clear
2:35 AM 66.4 °F - 58.5 °F 76% 30.08 in 10.0 mi SE 3.5 mph - N/A   Clear
2:55 AM 66.2 °F - 58.6 °F 77% 30.08 in 10.0 mi ESE 4.6 mph - N/A   Clear
3:15 AM 65.8 °F - 58.8 °F 78% 30.07 in 10.0 mi ESE 4.6 mph - N/A   Clear
3:35 AM 65.3 °F - 58.1 °F 77% 30.07 in 10.0 mi ESE 4.6 mph - N/A   Clear
3:55 AM 65.5 °F - 57.4 °F 75% 30.08 in 10.0 mi ESE 4.6 mph - N/A   Clear
4:15 AM 65.3 °F - 58.1 °F 77% 30.07 in 10.0 mi ESE 6.9 mph - N/A   Clear
4:35 AM 65.7 °F - 58.3 °F 77% 30.08 in 10.0 mi ESE 8.1 mph - N/A   Clear
4:55 AM 64.6 °F - 58.3 °F 80% 30.08 in 10.0 mi ESE 5.8 mph - N/A   Clear
5:15 AM 64.6 °F - 58.1 °F 79% 30.08 in 10.0 mi ESE 4.6 mph - N/A   Clear
5:35 AM 64.4 °F - 58.5 °F 81% 30.08 in 10.0 mi East 6.9 mph - N/A   Clear
5:55 AM 64.4 °F - 58.6 °F 82% 30.09 in 10.0 mi ESE 6.9 mph - N/A   Clear
6:15 AM 65.8 °F - 58.6 °F 78% 30.10 in 10.0 mi ESE 5.8 mph - N/A   Clear
6:35 AM 66.9 °F - 59.2 °F 76% 30.10 in 10.0 mi ESE 6.9 mph - N/A   Clear
6:55 AM 68.4 °F - 59.4 °F 73% 30.10 in 10.0 mi ESE 5.8 mph - N/A   Clear
7:15 AM 69.8 °F - 59.0 °F 68% 30.10 in 10.0 mi ESE 8.1 mph - N/A   Clear
7:35 AM 71.8 °F - 58.5 °F 63% 30.10 in 10.0 mi SE 8.1 mph - N/A   Clear
7:55 AM 73.2 °F - 58.5 °F 60% 30.10 in 10.0 mi SSE 9.2 mph - N/A   Clear
8:15 AM 75.2 °F - 59.4 °F 58% 30.10 in 10.0 mi SE 9.2 mph - N/A   Clear
8:35 AM 76.5 °F - 59.9 °F 56% 30.10 in 10.0 mi SSE 10.4 mph - N/A   Clear
8:55 AM 77.9 °F - 60.8 °F 56% 30.10 in 10.0 mi SSE 11.5 mph - N/A   Clear
9:15 AM 78.8 °F - 61.7 °F 56% 30.10 in 10.0 mi SSE 11.5 mph - N/A   Clear
9:35 AM 79.7 °F - 61.7 °F 54% 30.10 in 10.0 mi SSE 12.7 mph - N/A   Clear
9:55 AM 81.0 °F 81.8 °F 61.5 °F 51% 30.10 in 10.0 mi South 11.5 mph - N/A   Clear
10:15 AM 82.4 °F 82.9 °F 61.2 °F 48% 30.10 in 10.0 mi SSE 11.5 mph - N/A   Clear
10:35 AM 82.9 °F 83.5 °F 61.2 °F 48% 30.10 in 10.0 mi South 10.4 mph - N/A   Clear
10:55 AM 84.2 °F 84.6 °F 61.2 °F 46% 30.10 in 10.0 mi SSE 12.7 mph 17.3 mph N/A   Clear
11:15 AM 85.6 °F 85.9 °F 61.5 °F 44% 30.09 in 10.0 mi SSE 12.7 mph - N/A   Clear
11:35 AM 85.8 °F 86.3 °F 62.2 °F 45% 30.09 in 10.0 mi South 11.5 mph - N/A   Clear
11:55 AM 86.4 °F 86.8 °F 62.2 °F 44% 30.08 in 10.0 mi SE 12.7 mph - N/A   Clear
12:35 PM 87.4 °F 87.7 °F 62.1 °F 42% 30.08 in 10.0 mi SE 11.5 mph 18.4 mph N/A   Clear
12:55 PM 88.3 °F 88.9 °F 62.6 °F 42% 30.07 in 10.0 mi South 12.7 mph 17.3 mph N/A   Clear
1:15 PM 88.2 °F 88.4 °F 62.1 °F 41% 30.06 in 10.0 mi SSE 13.8 mph 17.3 mph N/A   Clear
1:35 PM 88.9 °F 89.1 °F 61.5 °F 40% 30.06 in 10.0 mi SSE 13.8 mph 20.7 mph N/A   Clear
1:55 PM 89.1 °F 89.0 °F 61.3 °F 39% 30.05 in 10.0 mi SSE 13.8 mph 19.6 mph N/A   Clear
2:15 PM 90.0 °F 89.7 °F 60.6 °F 37% 30.04 in 10.0 mi SSE 13.8 mph - N/A   Clear
2:35 PM 90.1 °F 89.9 °F 61.0 °F 37% 30.04 in 10.0 mi SSE 13.8 mph 19.6 mph N/A   Clear
2:55 PM 89.6 °F 89.2 °F 59.9 °F 37% 30.04 in 10.0 mi South 17.3 mph 21.9 mph N/A   Clear
3:15 PM 90.3 °F 90.2 °F 60.8 °F 37% 30.03 in 10.0 mi SSE 15.0 mph 20.7 mph N/A   Clear
3:35 PM 90.5 °F 90.1 °F 59.9 °F 36% 30.03 in 10.0 mi SSE 16.1 mph - N/A   Clear
3:55 PM 90.0 °F 89.1 °F 59.0 °F 35% 30.03 in 10.0 mi SSE 15.0 mph 21.9 mph N/A   Clear
4:15 PM 90.7 °F 90.4 °F 60.4 °F 36% 30.03 in 10.0 mi South 16.1 mph 20.7 mph N/A   Clear
4:35 PM 89.6 °F 89.2 °F 60.1 °F 37% 30.03 in 10.0 mi SSE 15.0 mph 20.7 mph N/A   Clear
4:55 PM 88.5 °F 88.3 °F 60.8 °F 39% 30.02 in 10.0 mi SSE 16.1 mph - N/A   Clear
5:15 PM 89.1 °F 89.0 °F 61.3 °F 39% 30.01 in 10.0 mi SSE 13.8 mph - N/A   Clear
5:35 PM 89.1 °F 89.0 °F 61.2 °F 39% 30.01 in 10.0 mi South 13.8 mph - N/A   Clear
5:55 PM 88.9 °F 89.4 °F 62.4 °F 41% 30.01 in 10.0 mi SSE 11.5 mph - N/A   Clear
6:15 PM 88.3 °F 88.9 °F 62.4 °F 42% 30.00 in 10.0 mi SSE 15.0 mph 18.4 mph N/A   Clear
6:55 PM 86.9 °F 87.5 °F 62.4 °F 44% 30.00 in 10.0 mi SSE 12.7 mph - N/A   Clear
7:15 PM 86.5 °F 87.0 °F 62.4 °F 44% 30.00 in 10.0 mi SSE 10.4 mph - N/A   Clear
7:35 PM 86.0 °F 86.8 °F 63.0 °F 46% 30.01 in 10.0 mi SSE 9.2 mph - N/A   Clear
7:55 PM 84.4 °F 85.6 °F 63.7 °F 50% 30.01 in 10.0 mi SSE 8.1 mph - N/A   Clear
8:15 PM 82.9 °F 84.6 °F 64.6 °F 54% 30.01 in 10.0 mi SSE 8.1 mph - N/A   Clear
8:35 PM 81.5 °F 83.3 °F 64.9 °F 57% 30.00 in 10.0 mi SSE 9.2 mph - N/A   Clear
8:55 PM 80.6 °F 82.3 °F 64.8 °F 58% 30.00 in 10.0 mi SSE 10.4 mph - N/A   Clear
9:15 PM 80.2 °F 82.0 °F 64.6 °F 59% 30.00 in 10.0 mi SSE 10.4 mph - N/A   Clear
9:35 PM 80.1 °F 81.8 °F 64.4 °F 59% 30.01 in 10.0 mi SSE 11.5 mph - N/A   Clear
9:55 PM 80.4 °F 82.1 °F 64.4 °F 58% 30.01 in 10.0 mi SSE 10.4 mph - N/A   Clear
10:15 PM 79.9 °F - 64.4 °F 59% 30.02 in 10.0 mi SSE 10.4 mph - N/A   Clear
10:35 PM 79.3 °F - 64.6 °F 60% 30.02 in 10.0 mi SSE 10.4 mph - N/A   Clear
10:55 PM 79.3 °F - 64.8 °F 61% 30.02 in 10.0 mi SSE 10.4 mph 17.3 mph N/A   Clear
11:15 PM 79.7 °F - 64.8 °F 60% 30.02 in 10.0 mi SSE 10.4 mph - N/A   Clear
11:35 PM 79.9 °F - 64.9 °F 60% 30.02 in 10.0 mi SSE 11.5 mph - N/A   Clear
11:55 PM 79.3 °F - 65.3 °F 62% 30.03 in 10.0 mi SSE 9.2 mph - N/A   Clear